Vertical_Velocity
-1 -1 -0 -2 -2 -1 -2 -1 1 1 -3 -1 -0 -2 -3 -1 4 2 0 1 -0 1
-0 -1 -2 0 1 0 1 -1 -1 0 1 1 1 2 3 3 0 -1 1 0 -1 -1
-1 -2 -1 -1 -1 -1 -0 1 0 0 0 0 0 0 -1 -0 0 -2 1 -0 -1 -0
1 1 0 -0 -0 -0 -1 -2 -1 -0 0 1 2 -0 -0 -0 0 -2 -0 1 -2 0
0 -0 0 -1 -2 -1 -1 -1 -2 -1 -1 -3 -1 -0 0 -2 -1 -1 1 0 -2 -0
-0 -2 -2 -0 0 0 0 2 -0 -0 1 -1 -0 -1 -1 -2 1 1 1 2 2 3
-2 -2 -2 -2 -2 -2 -2 -0 -2 -1 -0 -0 0 1 2 2 2 2 1 1 -0 -1
-1 -2 -1 -0 -0 -1 -1 -2 -2 -2 1 1 1 2 1 1 1 0 -0 1 3 2
2 3 1 -2 -2 -2 -2 -1 -1 1 0 1 0 -1 -0 -1 -2 0 0 -1 0 -0
-2 -4 -2 -1 0 2 1 0 1 1 1 1 1 0 0 -1 -1 -2 -0 -1 -2 -1
-2 -1 0 0 0 2 0 -0 -2 -1 1 -1 -0 -1 -0 0 1 -1 -1 0 -0 -1
1 1 2 -0 -1 -0 -2 -1 -0 1 -1 -1 2 2 1 -3 -4 -3 -2 -1 1 3
2 -1 -2 1 2 -1 -0 -2 0 -1 2 -1 -3 -0 -4 -2 -1 -2 -2 2 3 0
0 -1 2 -1 1 -0 -1 -1 -1 -3 -4 -3 -4 -2 1 -0 -2 1 -1 -0 0 1
Height
1529 1529 1528 1528 1527 1525 1523 1521 1520 1518 1516 1514 1514 1512 1512 1512 1511 1508 1508 1507 1507 1506
1526 1526 1525 1524 1523 1521 1519 1516 1515 1513 1512 1510 1509 1508 1507 1506 1506 1505 1504 1502 1502 1501
1524 1523 1522 1521 1519 1517 1514 1512 1510 1508 1506 1504 1504 1503 1502 1501 1501 1500 1500 1498 1497 1496
1520 1519 1517 1516 1514 1512 1509 1507 1505 1503 1502 1500 1499 1499 1498 1497 1496 1495 1494 1492 1492 1491
1517 1515 1513 1512 1510 1508 1506 1503 1502 1500 1498 1497 1496 1495 1494 1492 1491 1489 1488 1487 1486 1486
1513 1511 1510 1508 1507 1505 1503 1500 1498 1497 1494 1493 1492 1490 1489 1488 1486 1484 1483 1482 1481 1480
1509 1508 1506 1505 1504 1502 1500 1498 1496 1494 1492 1490 1488 1486 1484 1482 1480 1478 1477 1476 1475 1474
1505 1504 1503 1501 1499 1498 1496 1494 1493 1491 1489 1486 1484 1482 1479 1477 1475 1472 1471 1470 1469 1467
1502 1500 1499 1497 1496 1494 1493 1490 1489 1486 1483 1481 1478 1476 1474 1472 1470 1468 1466 1464 1463 1462
1498 1497 1495 1494 1492 1490 1487 1485 1483 1481 1479 1476 1474 1472 1469 1467 1465 1463 1460 1458 1456 1454
1494 1493 1491 1489 1487 1485 1482 1480 1477 1476 1473 1471 1469 1467 1465 1463 1460 1457 1455 1453 1450 1448
1490 1488 1486 1484 1482 1480 1478 1476 1474 1471 1469 1467 1464 1462 1458 1455 1454 1453 1450 1448 1446 1444
1486 1484 1482 1480 1477 1475 1474 1471 1469 1466 1464 1461 1459 1457 1454 1451 1448 1446 1445 1445 1440 1439
1482 1480 1478 1476 1475 1472 1469 1467 1464 1462 1460 1457 1455 1453 1450 1447 1443 1440 1438 1436 1435 1434